Flag for Argentina Weather past 2 weeks in Salta, Salta, Argentina

Now
64 °F

Clear.


Feels Like: 64 °F
Forecast: 58 / 74 °F
Wind: No wind

Location: Salta Aerodrome

Current Time: Apr 27, 2015 at 2:43:36 AM

Latest Report: Apr 27, 2015 at 2:00 AM


Visibility: 10 mi

Pressure: 30.12 "Hg

Humidity: 94%

Dew point: 63 °F

Location of SaltaLocation

Historic Weather in Salta — Graph

°F

Salta temperature yesterday

Maximum temperature yesterday: 73 °F (at 1:00 PM)
Minimum temperature yesterday: 61 °F (at 12:00 AM)
Average temperature yesterday: 66 °F

Past Weeks' High & Low Weather Summary

 TemperatureHumidityPressure
High82 °F (Apr 14, 3:00 PM)100% (Apr 12, 3:00 AM)30.33 "Hg (Apr 12, 3:00 AM)
Low57 °F (Apr 19, 6:00 AM)40% (Apr 19, 4:00 PM)29.74 "Hg (Apr 19, 3:00 PM)
Average65 °F82%30.09 "Hg
* Reported Apr 12 1:00 AM — Apr 27 1:00 AM, Salta, Weather by CustomWeather, © 2015

Note: Actual official high and low records may vary slightly from our data, if they occured in-between our weather recording intervals... More about our weather records

Advertising

Salta weather history for previous 24 hours

 ConditionsComfort  
Time TempWeatherWind HumidityBarometerVisibility
1:00 AM
Mon, Apr 27
64 °FClear.3 mph94%30.15 "Hg10 mi
12:00 AM64 °FMostly cloudy.2 mph94%30.15 "HgN/A
11:00 PM
Sun, Apr 26
64 °FMostly cloudy.5 mph94%30.15 "HgN/A
10:00 PM64 °FMostly cloudy.5 mph94%30.15 "HgN/A
9:00 PM66 °FPartly cloudy.3 mph83%30.12 "HgN/A
8:00 PM66 °FPartly cloudy.3 mph88%30.09 "HgN/A
7:00 PM66 °FMostly cloudy.6 mph83%30.07 "HgN/A
6:00 PM68 °FPartly cloudy.8 mph78%30.04 "HgN/A
5:00 PM70 °FBroken clouds.8 mph73%30.04 "HgN/A
4:00 PM72 °FBroken clouds.9 mph69%30.01 "HgN/A
3:00 PM73 °FPartly sunny.8 mph65%30.01 "HgN/A
2:00 PM73 °FPartly sunny.5 mph61%30.04 "HgN/A
1:00 PM73 °FPartly sunny.3 mph61%30.07 "HgN/A
12:00 PM68 °FPartly sunny.3 mph78%30.09 "HgN/A
9:00 AM63 °FMostly cloudy.No wind94%30.12 "Hg5 mi
8:00 AM61 °FPartly sunny.No wind94%30.09 "Hg5 mi
7:00 AM63 °FMostly cloudy.No wind94%30.09 "HgN/A
6:00 AM63 °FMostly cloudy.No wind88%30.07 "HgN/A
5:00 AM63 °FMostly cloudy.2 mph88%30.09 "HgN/A
4:00 AM63 °FMostly cloudy.1 mph94%30.09 "HgN/A
3:00 AM63 °FMostly cloudy.3 mph88%30.09 "HgN/A
2:00 AM63 °FOvercast.2 mph88%30.12 "HgN/A
Weather by CustomWeather, © 2015

See weather overviewHow to use our weather pages